EN

Hourly Weather Dzitas

Today, 20 October, Tuesday

Time Temperature Precipitation Wind Pressure Humidity
00:00 +25°C° 0 mm 1 mps 755 mmHg 97%
01:00 +24°C° 0 mm 1 mps 754 mmHg 97%
02:00 +24°C° 0 mm 1 mps 754 mmHg 98%
03:00 +24°C° 0 mm 1 mps 753 mmHg 98%
04:00 +24°C° 0 mm 1 mps 753 mmHg 98%
05:00 +24°C° 0 mm 1 mps 753 mmHg 98%
06:00 +24°C° 0 mm 1 mps 754 mmHg 98%
07:00 +26°C° 0.1 mm 1 mps 754 mmHg 92%
08:00 +28°C° 0.1 mm 1 mps 754 mmHg 86%
09:00 +29°C° 0.1 mm 1 mps 754 mmHg 81%
10:00 +29°C° 1.2 mm 1 mps 754 mmHg 83%
11:00 +29°C° 1.2 mm 2 mps 753 mmHg 86%
12:00 +29°C° 1.2 mm 2 mps 753 mmHg 89%
13:00 +29°C° 1.3 mm 2 mps 752 mmHg 90%
14:00 +29°C° 1.3 mm 2 mps 752 mmHg 91%
15:00 +29°C° 1.3 mm 2 mps 751 mmHg 92%
16:00 +28°C° 0.6 mm 2 mps 751 mmHg 94%
17:00 +27°C° 0.6 mm 1 mps 752 mmHg 95%
18:00 +26°C° 0.6 mm 1 mps 752 mmHg 97%
19:00 +26°C° 0 mm 1 mps 752 mmHg 97%
20:00 +26°C° 0 mm 1 mps 753 mmHg 97%
21:00 +25°C° 0 mm 1 mps 753 mmHg 98%
22:00 +23°C° 0 mm 0 mps 753 mmHg 98%
23:00 +23°C° 0 mm 0 mps 753 mmHg 98%

Tomorrow, 21 October, Wednesday

Time Temperature Precipitation Wind Pressure Humidity
00:00 +23°C° 0 mm 0 mps 753 mmHg 98%
01:00 +23°C° 0 mm 0 mps 753 mmHg 98%
02:00 +22°C° 0 mm 0 mps 753 mmHg 98%
03:00 +22°C° 0 mm 0 mps 753 mmHg 98%
04:00 +22°C° 0 mm 0 mps 753 mmHg 99%
05:00 +22°C° 0 mm 0 mps 753 mmHg 99%
06:00 +22°C° 0 mm 0 mps 754 mmHg 99%
07:00 +23°C° 0 mm 0 mps 754 mmHg 95%
08:00 +25°C° 0 mm 0 mps 754 mmHg 92%
09:00 +28°C° 0 mm 1 mps 755 mmHg 88%
10:00 +30°C° 0 mm 1 mps 754 mmHg 80%
11:00 +31°C° 0 mm 1 mps 754 mmHg 72%
12:00 +33°C° 0 mm 1 mps 754 mmHg 63%
13:00 +31°C° 0.1 mm 0 mps 753 mmHg 64%
14:00 +31°C° 0.1 mm 0 mps 753 mmHg 64%
15:00 +31°C° 0.1 mm 0 mps 752 mmHg 64%
16:00 +31°C° 0.3 mm 1 mps 753 mmHg 74%
17:00 +29°C° 0.3 mm 1 mps 753 mmHg 84%
18:00 +27°C° 0.3 mm 1 mps 753 mmHg 94%
19:00 +26°C° 0 mm 1 mps 754 mmHg 95%
20:00 +26°C° 0 mm 1 mps 754 mmHg 96%
21:00 +26°C° 0 mm 1 mps 755 mmHg 97%
22:00 +25°C° 0 mm 1 mps 755 mmHg 98%
23:00 +25°C° 0 mm 1 mps 755 mmHg 98%

Day after tomorrow, 22 October, Thursday

Time Temperature Precipitation Wind Pressure Humidity
00:00 +25°C° 0 mm 1 mps 754 mmHg 98%
01:00 +25°C° 0 mm 1 mps 754 mmHg 98%
02:00 +25°C° 0 mm 1 mps 754 mmHg 98%
03:00 +25°C° 0 mm 1 mps 754 mmHg 98%
04:00 +25°C° 0 mm 1 mps 754 mmHg 98%
05:00 +24°C° 0 mm 1 mps 754 mmHg 99%
06:00 +24°C° 0 mm 1 mps 754 mmHg 99%
07:00 +26°C° 0 mm 1 mps 755 mmHg 92%
08:00 +28°C° 0 mm 1 mps 755 mmHg 85%
09:00 +30°C° 0 mm 1 mps 756 mmHg 78%
10:00 +31°C° 0 mm 1 mps 755 mmHg 71%
11:00 +33°C° 0 mm 1 mps 755 mmHg 64%
12:00 +34°C° 0 mm 1 mps 754 mmHg 57%
13:00 +34°C° 0.1 mm 1 mps 754 mmHg 59%
14:00 +34°C° 0.1 mm 1 mps 754 mmHg 60%
15:00 +33°C° 0.1 mm 1 mps 753 mmHg 62%
16:00 +31°C° 0.4 mm 2 mps 754 mmHg 72%
17:00 +29°C° 0.4 mm 2 mps 754 mmHg 82%
18:00 +27°C° 0.4 mm 2 mps 754 mmHg 92%
19:00 +27°C° 0.1 mm 1 mps 755 mmHg 94%
20:00 +26°C° 0.1 mm 1 mps 755 mmHg 95%
21:00 +26°C° 0.1 mm 1 mps 756 mmHg 97%
22:00 +26°C° 0 mm 1 mps 756 mmHg 97%
23:00 +25°C° 0 mm 1 mps 756 mmHg 97%

23 October, Friday

Time Temperature Precipitation Wind Pressure Humidity
00:00 +25°C° 0 mm 1 mps 755 mmHg 98%
01:00 +25°C° 0 mm 1 mps 755 mmHg 98%
02:00 +25°C° 0 mm 1 mps 755 mmHg 98%
03:00 +25°C° 0 mm 1 mps 755 mmHg 98%
04:00 +24°C° 0 mm 1 mps 755 mmHg 98%
05:00 +24°C° 0 mm 1 mps 755 mmHg 98%
06:00 +22°C° 0 mm 0 mps 755 mmHg 98%
07:00 +26°C° 0 mm 1 mps 756 mmHg 90%
08:00 +28°C° 0 mm 1 mps 756 mmHg 83%
09:00 +30°C° 0 mm 1 mps 757 mmHg 75%
10:00 +32°C° 0 mm 1 mps 756 mmHg 67%
11:00 +32°C° 0 mm 0 mps 755 mmHg 59%
12:00 +34°C° 0 mm 0 mps 755 mmHg 51%
13:00 +35°C° 0.5 mm 1 mps 755 mmHg 56%
14:00 +35°C° 0.5 mm 2 mps 754 mmHg 62%
15:00 +34°C° 0.5 mm 2 mps 754 mmHg 67%
16:00 +31°C° 0.6 mm 2 mps 754 mmHg 76%
17:00 +29°C° 0.6 mm 2 mps 754 mmHg 84%
18:00 +27°C° 0.6 mm 2 mps 755 mmHg 93%
19:00 +26°C° 0 mm 2 mps 755 mmHg 94%
20:00 +26°C° 0 mm 1 mps 756 mmHg 96%
21:00 +26°C° 0 mm 1 mps 756 mmHg 97%
22:00 +26°C° 0 mm 1 mps 756 mmHg 98%
23:00 +26°C° 0 mm 1 mps 756 mmHg 98%

24 October, Saturday

Time Temperature Precipitation Wind Pressure Humidity
00:00 +23°C° 0 mm 0 mps 756 mmHg 98%
01:00 +23°C° 0 mm 0 mps 756 mmHg 98%
02:00 +23°C° 0 mm 0 mps 756 mmHg 98%
03:00 +23°C° 0 mm 0 mps 755 mmHg 98%
04:00 +23°C° 0 mm 0 mps 755 mmHg 98%
05:00 +23°C° 0 mm 0 mps 756 mmHg 98%
06:00 +23°C° 0 mm 0 mps 756 mmHg 98%
07:00 +27°C° 0 mm 1 mps 756 mmHg 90%
08:00 +29°C° 0 mm 1 mps 756 mmHg 81%
09:00 +31°C° 0 mm 1 mps 757 mmHg 73%
10:00 +32°C° 0.1 mm 1 mps 756 mmHg 70%
11:00 +32°C° 0.1 mm 1 mps 756 mmHg 68%
12:00 +33°C° 0.1 mm 1 mps 755 mmHg 65%
13:00 +32°C° 1.7 mm 2 mps 755 mmHg 74%
14:00 +31°C° 1.7 mm 2 mps 754 mmHg 82%
15:00 +29°C° 1.7 mm 2 mps 754 mmHg 91%
16:00 +28°C° 1 mm 2 mps 754 mmHg 93%
17:00 +28°C° 1 mm 2 mps 754 mmHg 95%
18:00 +27°C° 1 mm 2 mps 755 mmHg 97%
19:00 +26°C° 0.5 mm 2 mps 755 mmHg 97%
20:00 +26°C° 0.5 mm 1 mps 756 mmHg 97%
21:00 +26°C° 0.5 mm 1 mps 756 mmHg 98%
22:00 +26°C° 0 mm 1 mps 756 mmHg 98%
23:00 +25°C° 0 mm 1 mps 756 mmHg 98%

25 October, Sunday

Time Temperature Precipitation Wind Pressure Humidity
00:00 +25°C° 0 mm 1 mps 756 mmHg 98%
01:00 +25°C° 0 mm 1 mps 755 mmHg 98%
02:00 +25°C° 0 mm 1 mps 755 mmHg 98%
03:00 +25°C° 0 mm 1 mps 755 mmHg 98%
04:00 +25°C° 0 mm 1 mps 755 mmHg 98%
05:00 +25°C° 0 mm 1 mps 755 mmHg 98%
06:00 +25°C° 0 mm 1 mps 756 mmHg 98%
07:00 +27°C° 0 mm 1 mps 756 mmHg 92%
08:00 +28°C° 0 mm 1 mps 756 mmHg 86%
09:00 +30°C° 0 mm 2 mps 757 mmHg 80%
10:00 +32°C° 0 mm 2 mps 756 mmHg 72%
11:00 +34°C° 0 mm 2 mps 756 mmHg 64%
12:00 +35°C° 0 mm 2 mps 755 mmHg 56%
13:00 +34°C° 0.9 mm 2 mps 755 mmHg 68%
14:00 +31°C° 0.9 mm 2 mps 754 mmHg 79%
15:00 +30°C° 0.9 mm 2 mps 754 mmHg 90%
16:00 +29°C° 0.7 mm 2 mps 754 mmHg 93%
17:00 +28°C° 0.7 mm 2 mps 754 mmHg 95%
18:00 +27°C° 0.7 mm 2 mps 755 mmHg 97%
19:00 +27°C° 0 mm 2 mps 755 mmHg 97%
20:00 +26°C° 0 mm 1 mps 756 mmHg 98%
21:00 +26°C° 0 mm 1 mps 756 mmHg 98%
22:00 +26°C° 0 mm 1 mps 756 mmHg 98%
23:00 +26°C° 0 mm 1 mps 756 mmHg 98%

26 October, Monday

Time Temperature Precipitation Wind Pressure Humidity
00:00 +25°C° 0 mm 1 mps 755 mmHg 98%
01:00 +25°C° 0 mm 1 mps 755 mmHg 98%
02:00 +25°C° 0 mm 1 mps 755 mmHg 98%
03:00 +25°C° 0 mm 1 mps 754 mmHg 98%
04:00 +25°C° 0 mm 1 mps 754 mmHg 98%
05:00 +25°C° 0 mm 1 mps 755 mmHg 98%
06:00 +25°C° 0 mm 1 mps 755 mmHg 98%
07:00 +27°C° 0 mm 1 mps 755 mmHg 92%
08:00 +28°C° 0 mm 1 mps 756 mmHg 86%
09:00 +30°C° 0 mm 2 mps 756 mmHg 80%
10:00 +30°C° 0.7 mm 2 mps 755 mmHg 83%
11:00 +31°C° 0.7 mm 2 mps 755 mmHg 85%
12:00 +31°C° 0.7 mm 2 mps 755 mmHg 88%
13:00 +30°C° 1.7 mm 2 mps 754 mmHg 89%
14:00 +30°C° 1.7 mm 2 mps 754 mmHg 89%
15:00 +30°C° 1.7 mm 3 mps 753 mmHg 90%
16:00 +29°C° 0.4 mm 2 mps 753 mmHg 92%
17:00 +28°C° 0.4 mm 2 mps 754 mmHg 94%
18:00 +27°C° 0.4 mm 2 mps 754 mmHg 95%
19:00 +27°C° 0 mm 2 mps 755 mmHg 95%
20:00 +27°C° 0 mm 2 mps 755 mmHg 95%
21:00 +26°C° 0 mm 2 mps 755 mmHg 95%
22:00 +26°C° 0 mm 2 mps 755 mmHg 96%
23:00 +26°C° 0 mm 2 mps 755 mmHg 96%
Show more